Regional Weather Roundup
Issued by NWS

Home | Current Version | Previous Version | Text Only | Print | Product List | Glossary On
Versions: 1 2 3 4 5 6 7 8 9 10 11 12 13 14 15 16 17 18 19 20 21 22 23 24 25 26 27 28 29 30 31 32 33 34 35 36 37 38 39 40 41 42 43 44 45 46 47 48 49 50
000
ASUS43 KBIS 182210
RWRND

NORTH DAKOTA REGIONAL WEATHER ROUNDUP
NATIONAL WEATHER SERVICE BISMARCK ND
400 PM CST THU JAN 18 2018

NOTE: "FAIR" INDICATES FEW OR NO CLOUDS BELOW 12,000 FEET WITH NO
SIGNIFICANT WEATHER AND/OR OBSTRUCTIONS TO VISIBILITY.


NDZ001>003-009>011-017-182300-
NORTHWEST NORTH DAKOTA

CITY           SKY/WX    TMP DP  RH WIND       PRES   REMARKS
WILLISTON      CLOUDY    38  28  67 SW9       29.64F
MINOT          CLOUDY    40  26  57 SW24      29.59S
MINOT AFB      CLOUDY    38  28  65 W17       29.58R
$$

NDZ018>021-031>035-040>046-182300-
SOUTHWEST NORTH DAKOTA

CITY           SKY/WX    TMP DP  RH WIND       PRES   REMARKS
BISMARCK       CLOUDY    38  28  67 S5        29.70F
DICKINSON      CLOUDY    40  28  62 W15       29.67S
GARRISON         N/A     33  26  75 S5        29.64F
HETTINGER ARPT CLOUDY    42  29  59 W7        29.72F
$$

NDZ004>008-012>016-024-026-027-054-182300-
NORTHEAST NORTH DAKOTA

CITY           SKY/WX    TMP DP  RH WIND       PRES   REMARKS
GRAND FORKS    MOCLDY    27  22  81 S7        29.70F WCI  19
GRND FRKS AFB  FAIR      27  20  76 S7        29.69F WCI  19
DEVILS LAKE    FAIR      30  23  75 S8        29.64F
$$

NDZ022-023-025-028>030-036>039-047>053-182300-
SOUTHEAST NORTH DAKOTA

CITY           SKY/WX    TMP DP  RH WIND       PRES   REMARKS
FARGO            N/A     30  24  78 SW6         N/A
JAMESTOWN      CLOUDY    35  26  69 SW7       29.68F
$$




USA.gov is the U.S. government's official web portal to all federal, state and local government web resources and services.